Change the Weather History Date:

Sunday, January 6, 2013

  Actual Average Record
Temperature  
Mean Temperature 24 °F -  
Max Temperature 31 °F - - ()
Min Temperature 18 °F - - ()
Degree Days  
Heating Degree Days 40    
Moisture  
Dew Point 14 °F    
Average Humidity 56    
Maximum Humidity 75    
Minimum Humidity 32    
Precipitation  
Precipitation 0.00 in - - ()
Sea Level Pressure  
Sea Level Pressure 29.81 in    
Wind  
Wind Speed 9 mph ()    
Max Wind Speed 15 mph    
Max Gust Speed 23 mph    
T = Trace of Precipitation, MM = Missing Value Source: Averaged Metar Reports

Daily Weather History Graph

Daily Weather History Graph

Search for Another Location

Airport or City:

Trip Planner

Search our weather history database for the weather conditions in past years. The results will help you decide how hot, cold, wet, or windy it might be!

Date:

Astronomy

Jan. 06, 2013 Rise Set
Actual Time 8:42 AM MST 4:50 PM MST
Civil Twilight 8:03 AM MST 5:29 PM MST
Nautical Twilight 7:21 AM MST 6:11 PM MST
Astronomical Twilight 6:41 AM MST 6:51 PM MST
Moon 2:46 AM MST (1/6) 12:33 PM MST (1/6)
Length of Visible Light 9h 25m
Length of Day
8h 07m
Waning Crescent, 32% of the Moon is Illuminated
Jan 6
Waning Crescent
Jan 11
New
Jan 18
First Quarter
Jan 26
Full
Feb 3
Last Quarter

Hourly Weather History & Observations

Time (MST) Temp. Windchill Dew Point Humidity Pressure Visibility Wind Dir Wind Speed Gust Speed Precip Events Conditions
12:00 AM 23.7 °F 13.3 °F 14.5 °F 68% 29.91 in - WSW 10.4 mph 17.3 mph N/A   Unknown
1:00 AM 25.2 °F 15.1 °F 15.8 °F 68% 29.87 in - WSW 10.4 mph 19.6 mph N/A   Unknown
2:00 AM 26.4 °F 16.0 °F 15.8 °F 64% 29.82 in - WSW 11.5 mph 18.4 mph N/A   Unknown
4:00 AM 28.8 °F 17.5 °F 17.6 °F 63% 29.78 in - WSW 15.0 mph 23.0 mph N/A   Unknown
5:00 AM 28 °F - 17 °F 51% 29.80 in - WSW 12.7 mph - -  
5:00 AM 27.7 °F 17.1 °F 17.1 °F 64% 29.80 in - WSW 12.7 mph 20.7 mph N/A   Unknown
6:00 AM 26.6 °F 15.7 °F 19.8 °F 75% 29.82 in - WSW 12.7 mph 20.7 mph N/A   Unknown
7:00 AM 26.8 °F 17.1 °F 18.5 °F 71% 29.81 in - WSW 10.4 mph - N/A   Unknown
8:00 AM 27.3 °F 19.1 °F 18.3 °F 69% 29.81 in - WSW 8.1 mph - N/A   Unknown
9:00 AM 26.6 °F 19.1 °F 17.6 °F 69% 29.81 in - WSW 6.9 mph - N/A   Unknown
10:00 AM 28.0 °F 20.8 °F 15.6 °F 60% 29.83 in - WSW 6.9 mph - N/A   Unknown
11:00 AM 29 °F - 14 °F 39% 29.83 in - WSW 6.9 mph - -  
11:00 AM 29.5 °F 22.5 °F 13.6 °F 52% 29.83 in - WSW 6.9 mph - N/A   Unknown
12:00 PM 30.7 °F 24.1 °F 11.3 °F 44% 29.81 in - WSW 6.9 mph - N/A   Unknown
1:00 PM 30.9 °F 23.5 °F 10.6 °F 43% 29.78 in - WSW 8.1 mph - N/A   Unknown
2:00 PM 30.7 °F 23.3 °F 11.3 °F 44% 29.78 in - WSW 8.1 mph - N/A   Unknown
3:00 PM 29.8 °F 20.9 °F 9.1 °F 42% 29.78 in - West 10.4 mph 18.4 mph N/A   Unknown
4:00 PM 29.7 °F 21.3 °F 8.8 °F 42% 29.79 in - West 9.2 mph - N/A   Unknown
5:00 PM 28 °F - 10 °F 32% 29.81 in - West 10.4 mph - -  
5:00 PM 28.4 °F 19.1 °F 9.7 °F 46% 29.81 in - West 10.4 mph 18.4 mph N/A   Unknown
7:00 PM 27.7 °F 17.6 °F 11.8 °F 51% 29.80 in - West 11.5 mph 18.4 mph N/A   Unknown
8:00 PM 27.5 °F 18.0 °F 12.6 °F 54% 29.82 in - WSW 10.4 mph - N/A   Unknown
9:00 PM 27.3 °F 17.1 °F 14.4 °F 58% 29.82 in - WSW 11.5 mph - N/A   Unknown
10:00 PM 25.7 °F 14.0 °F 15.6 °F 66% 29.81 in - West 13.8 mph 21.9 mph N/A   Unknown
11:00 PM 25 °F - 16 °F 58% 29.83 in - WSW 13.8 mph - -  
11:00 PM 24.6 °F 12.7 °F 16.3 °F 71% 29.83 in - WSW 13.8 mph 20.7 mph N/A   Unknown